RH
81 79 77 78 79 80 81 81 82 84 85 88 90 92 93 90 84 77 69 64 63 61 59 59 63 65 66 68 71 74 77 79 77 77 79 84 84 79 72 65 59 56 53 50 48 47 45 44 41 39 37 34 34 35 37 39 38 39 41 39 39 40 37 37 42 45 44 43 45 47 43 41 46 45 38 40 47 59 77 88 87 85 80 68 60 58 59 57 53 49 44 43 44 48 51 53 52
82 83 81 80 80 81 82 83 85 86 88 91 94 96 93 89 84 77 72 66 63 64 64 63 65 66 67 71 76 81 83 83 83 85 88 88 84 77 70 62 56 54 51 50 48 46 45 42 40 37 35 36 36 38 39 38 38 37 38 40 39 39 39 38 37 36 36 36 36 36 35 33 34 33 32 37 46 54 69 87 94 95 85 76 70 63 66 63 57 52 48 46 47 56 61 62 59
82 84 84 83 82 83 84 86 88 90 92 95 99 98 92 87 84 81 77 71 67 66 67 69 71 75 82 88 91 93 94 92 93 94 91 86 80 72 65 59 54 52 50 49 47 44 43 40 38 38 36 37 38 39 39 36 35 36 37 39 40 40 39 38 38 38 37 37 37 36 36 35 35 37 35 35 42 49 72 94 96 95 90 92 90 76 71 66 62 59 56 54 59 68 68 66 61
87 87 86 86 86 86 87 89 91 93 95 98 101 97 91 89 86 86 83 76 71 71 75 78 84 91 99 102 99 102 103 100 98 93 85 80 74 65 59 56 53 50 49 47 45 43 42 40 39 39 39 39 41 39 37 36 34 35 38 40 41 41 39 38 38 37 38 38 38 38 40 42 41 41 39 38 41 44 66 90 93 95 92 97 101 91 78 73 77 71 66 69 76 77 70 67 60
93 91 88 87 89 89 90 91 92 95 97 99 102 98 93 91 88 87 86 81 77 78 82 84 90 95 99 99 97 100 100 94 91 84 77 73 66 59 56 54 52 50 48 46 44 44 42 41 40 41 42 41 41 39 36 36 34 35 39 42 42 39 36 36 37 38 38 39 39 39 41 41 39 37 40 43 44 43 50 68 92 103 100 103 100 97 93 87 91 87 84 86 87 85 76 68 56
98 95 92 89 89 89 91 93 95 98 100 100 102 98 92 89 88 87 88 86 83 84 86 86 88 91 94 96 93 94 91 86 83 77 71 66 62 57 55 53 52 50 48 45 44 44 43 42 43 43 43 42 39 36 37 36 36 38 40 40 36 33 34 37 39 41 40 41 42 41 39 38 39 37 38 42 45 43 36 50 91 104 100 108 100 99 104 98 94 88 91 95 94 92 82 68 50
100 101 99 95 93 92 93 95 98 101 102 103 103 96 88 88 88 90 92 90 89 87 87 88 90 95 99 98 95 92 87 82 77 72 66 61 59 55 53 53 52 49 46 44 43 43 43 44 44 44 42 40 37 36 38 39 40 41 42 39 33 33 36 38 39 39 41 41 41 40 39 40 41 41 40 42 43 43 44 61 96 102 97 106 99 89 92 96 91 84 91 100 98 93 81 63 45
101 104 105 102 100 98 96 96 98 101 105 105 104 98 91 91 91 94 96 92 93 93 93 94 95 100 102 100 98 93 86 79 74 69 62 56 54 51 51 52 51 48 45 42 42 42 43 44 42 41 40 38 38 38 39 39 43 45 45 42 38 37 35 35 34 35 37 36 38 39 40 41 41 43 43 42 42 53 63 71 84 88 88 99 103 93 83 83 81 88 99 100 98 86 70 58 49
101 103 104 104 103 102 100 99 99 101 105 104 104 102 95 94 95 98 97 92 96 99 99 98 97 101 102 100 98 92 85 77 72 66 57 53 49 48 49 50 49 45 43 41 40 42 42 42 38 37 38 39 41 40 39 40 41 45 46 46 43 39 35 34 33 35 35 34 37 38 38 40 40 41 44 44 43 53 57 53 59 69 74 77 90 97 93 91 88 95 102 102 95 70 61 66 60
100 101 101 102 102 103 103 102 102 103 104 104 107 103 96 97 99 99 99 96 99 102 102 100 101 103 103 102 98 91 83 76 70 60 51 48 45 44 44 45 46 43 41 40 39 41 41 39 40 41 39 38 42 41 43 44 44 48 50 48 47 45 42 39 38 38 36 35 36 35 35 38 40 38 41 46 43 43 39 36 40 49 56 54 65 83 93 99 98 101 104 97 77 61 79 82 64
102 101 101 102 101 103 104 103 105 105 104 105 108 103 98 100 100 99 100 99 100 103 102 102 104 104 105 104 98 90 80 73 63 52 45 43 40 39 39 41 42 41 38 37 37 40 39 42 48 47 41 38 40 42 43 47 49 54 56 52 53 53 47 42 41 41 39 38 36 35 35 37 40 36 35 40 41 37 30 32 35 42 55 61 75 88 94 99 101 105 97 78 67 81 99 80 67
106 105 102 102 101 102 101 103 105 104 105 104 105 104 102 102 101 101 101 101 102 102 102 103 105 105 107 103 95 85 73 65 54 44 41 37 35 34 36 37 36 35 34 34 37 40 40 43 48 46 45 44 44 43 43 47 52 55 57 55 56 55 46 41 42 41 40 41 40 39 37 37 38 36 34 33 36 35 31 30 31 53 83 90 94 100 103 103 101 94 75 70 86 102 96 80 85
99 105 104 101 101 103 100 101 102 101 101 101 102 103 103 102 102 102 101 102 101 102 102 103 105 105 104 97 88 76 63 55 45 38 35 30 30 30 31 31 30 32 34 38 40 42 43 42 44 46 49 51 50 50 48 50 53 55 57 56 58 58 49 42 39 38 38 40 41 40 39 39 38 36 34 31 31 29 29 32 33 58 87 88 87 94 90 79 78 73 67 87 105 102 95 96 102
78 92 101 102 102 103 101 101 101 100 101 99 100 101 101 101 101 102 101 101 101 103 103 102 103 102 97 88 75 62 51 44 36 30 27 25 26 26 27 29 32 37 40 43 43 41 40 41 43 46 49 51 51 53 53 54 56 57 59 59 60 61 57 51 44 39 38 38 38 37 38 38 36 33 30 31 33 29 27 32 39 46 54 58 62 68 62 62 76 79 85 104 105 96 97 101 103
51 65 80 92 97 100 101 102 102 101 102 100 99 99 101 101 100 102 101 101 102 103 103 101 98 92 85 73 58 49 40 32 26 23 21 22 23 25 28 33 38 41 43 41 38 35 33 35 38 42 46 49 50 52 55 55 56 58 60 63 65 64 63 61 57 50 42 36 33 32 33 33 33 32 32 34 34 33 31 35 49 58 64 73 74 75 80 89 97 95 99 103 97 96 98 99 99
27 35 46 60 71 80 88 94 97 98 100 100 100 100 101 101 100 101 100 101 100 99 97 93 86 76 66 54 42 36 27 22 19 19 20 22 24 28 32 36 39 39 38 35 32 31 30 30 33 38 43 46 48 50 52 55 57 60 63 66 70 70 67 63 60 54 44 35 30 29 30 31 31 33 35 36 33 33 36 49 76 93 97 97 96 101 102 100 99 100 102 93 89 92 93 95 94
14 17 22 28 35 44 53 64 71 76 82 87 90 92 94 94 93 92 90 88 84 79 74 69 63 53 44 35 28 22 18 17 17 18 20 22 27 32 35 35 34 33 31 30 29 29 28 27 29 34 39 42 46 48 49 53 58 62 66 69 72 73 68 60 52 45 37 31 28 28 29 32 35 38 38 39 38 34 35 52 84 104 110 103 102 109 103 97 95 95 96 87 85 88 86 89 92
12 12 13 14 17 20 24 29 34 39 45 50 56 59 62 64 64 64 61 57 52 47 42 38 34 28 24 19 16 15 16 17 16 17 20 23 28 31 30 27 25 26 26 26 25 24 24 25 27 31 37 42 46 50 52 53 56 60 63 66 68 67 61 51 42 35 30 28 28 29 33 36 39 42 43 44 40 38 43 60 85 98 104 102 102 107 101 95 89 86 89 88 86 85 82 84 91
10 11 11 11 11 12 13 14 15 17 20 23 26 28 30 31 31 31 30 28 26 23 20 18 16 15 14 13 15 15 15 15 16 18 20 22 24 23 21 20 21 21 21 21 20 20 21 23 25 28 34 40 45 49 53 55 57 57 56 56 55 53 50 43 37 33 30 30 32 34 40 43 44 45 47 47 46 61 81 90 99 101 100 102 104 103 93 88 87 86 88 89 85 83 84 88 93
9 9 10 10 9 10 10 10 11 11 12 13 14 15 16 17 17 17 17 16 15 14 13 12 11 11 11 13 14 14 15 16 18 19 19 18 18 18 18 18 18 18 18 18 20 20 22 23 23 25 27 32 38 43 46 49 49 48 46 44 43 42 42 42 40 37 35 37 38 41 49 52 51 51 52 51 48 72 101 102 102 104 100 101 101 95 86 84 85 85 87 86 80 81 90 95 97
9 9 9 9 8 9 9 10 10 10 10 10 10 11 12 12 13 14 13 13 12 10 10 10 9 9 10 12 13 14 16 18 19 18 16 16 17 20 20 18 16 17 18 19 21 22 23 22 21 21 22 25 29 34 37 38 38 38 37 37 37 36 37 40 43 44 44 45 44 46 59 63 58 56 54 53 47 58 82 90 97 105 100 100 101 96 92 90 87 85 85 84 80 85 94 97 95
8 9 9 9 9 10 10 9 10 9 9 9 9 10 10 11 12 11 11 11 10 9 9 9 9 10 11 12 14 15 17 17 17 15 15 16 19 20 19 17 17 18 18 18 19 20 21 20 20 20 22 24 25 27 30 31 32 32 33 33 34 35 36 39 43 48 50 51 52 56 69 70 61 59 54 53 51 48 57 70 81 89 91 96 101 101 100 96 94 91 86 90 93 93 92 88 84
9 9 9 9 10 10 10 10 11 12 13 12 12 12 11 11 11 10 10 9 9 10 10 10 10 12 13 15 17 18 17 16 15 14 16 18 18 17 17 17 18 18 17 17 17 18 20 20 20 21 21 22 22 23 23 24 25 25 27 27 29 32 35 39 44 49 54 57 61 65 70 67 59 59 57 54 53 50 61 83 92 92 95 99 101 101 100 99 103 104 96 95 96 92 86 79 74
10 11 11 10 11 11 11 12 14 15 15 14 13 13 12 12 11 11 10 10 11 12 12 12 13 15 19 22 22 21 19 16 16 17 19 19 18 19 20 20 19 18 18 18 18 18 19 19 18 18 18 17 17 17 17 17 18 18 20 21 24 28 31 38 44 51 60 65 66 66 65 64 61 61 60 59 57 53 61 83 92 89 90 91 89 85 88 98 104 105 100 95 93 88 83 77 74
12 13 13 12 13 14 13 13 13 13 13 13 12 12 12 12 11 11 11 12 13 13 13 14 17 22 25 26 25 23 20 18 18 20 21 21 21 21 20 19 18 17 17 17 17 16 15 15 15 14 14 14 15 15 15 15 15 16 17 19 21 24 30 38 46 56 64 66 66 66 63 62 63 66 68 65 61 57 55 61 66 66 67 68 68 73 87 99 100 101 102 98 94 87 80 76 72
15 15 14 14 15 15 14 13 12 12 12 12 13 13 12 12 12 12 13 13 14 15 16 19 25 30 31 30 28 23 20 20 21 23 23 22 21 19 17 16 15 15 16 15 15 14 13 13 12 13 14 15 14 14 14 15 15 17 18 20 22 25 32 41 52 61 64 64 64 63 62 67 76 79 77 71 69 68 65 63 63 61 61 65 70 83 99 102 101 106 102 95 90 82 75 71 66
17 16 15 15 15 15 14 13 12 12 12 11 13 13 13 13 13 14 15 17 19 20 23 27 31 34 34 32 27 22 20 21 21 21 20 19 17 15 15 15 15 16 15 15 14 14 13 13 13 13 15 15 15 15 16 16 17 18 19 21 24 28 34 43 53 60 63 63 62 69 77 89 97 91 84 82 84 83 78 77 76 75 76 83 91 97 104 103 104 105 95 88 82 75 70 65 61
19 19 19 19 19 19 17 15 13 12 12 11 12 13 13 14 16 17 19 21 23 24 27 29 31 32 31 26 21 20 20 21 20 19 18 17 17 16 17 16 15 15 16 16 15 14 14 14 14 14 17 19 19 19 19 19 19 20 22 25 27 32 38 45 51 57 64 61 65 86 98 104 103 96 96 96 97 94 92 94 89 90 94 94 100 103 104 104 99 93 86 80 74 69 64 58 53
21 21 22 24 25 25 24 21 18 15 15 15 16 17 18 21 21 20 22 23 24 26 27 28 29 29 25 21 21 22 22 22 21 20 20 19 19 18 18 17 15 15 17 19 19 17 17 17 20 23 25 26 24 22 22 23 24 25 27 29 31 36 40 46 51 55 59 65 84 102 101 104 102 99 103 99 101 96 91 101 96 95 100 94 97 102 97 88 78 77 76 70 63 59 54 48 45
23 25 26 28 29 31 29 26 22 21 21 22 22 23 25 27 25 25 25 26 28 30 29 29 30 28 25 24 24 25 24 24 23 22 22 21 20 19 19 18 18 17 19 22 25 25 25 23 26 31 35 35 29 25 24 25 27 28 30 33 35 39 42 47 51 54 66 82 103 108 99 104 102 101 107 99 104 98 80 95 99 87 86 84 85 82 74 69 65 66 64 58 54 50 46 42 39
25 27 30 32 33 34 32 29 27 27 25 24 24 26 31 33 30 28 28 28 32 33 32 32 33 31 29 28 27 26 26 26 25 23 22 21 21 21 21 21 21 22 24 27 30 31 32 30 27 28 31 33 29 25 24 26 29 30 32 34 36 39 42 45 46 56 83 100 108 107 103 108 102 103 110 96 102 106 86 92 100 85 77 76 76 73 72 75 70 61 54 51 50 46 41 37 34
26 29 32 33 34 33 30 30 31 29 25 23 25 30 37 37 31 28 28 30 33 35 36 37 36 34 32 30 28 27 26 26 25 24 24 23 23 24 24 25 26 29 30 31 32 32 33 34 30 25 24 25 24 23 24 27 30 31 33 34 37 40 43 48 50 56 75 87 94 99 99 106 104 102 105 90 94 107 97 97 102 96 92 90 89 87 83 75 64 54 50 49 45 40 36 32 31
29 29 30 30 31 31 30 31 31 28 25 24 26 31 35 35 31 30 31 33 35 37 38 38 36 33 31 29 27 26 26 27 26 27 27 27 28 29 31 32 33 34 34 34 35 34 32 34 34 30 26 26 26 27 29 31 33 34 34 36 41 48 54 63 68 69 74 82 91 97 96 101 102 100 103 96 95 102 97 98 102 102 104 104 98 88 76 65 56 52 50 47 42 36 32 30 31
28 27 26 28 31 31 30 29 29 28 26 25 27 29 33 34 33 32 32 33 35 35 35 34 32 30 28 27 26 26 29 31 31 31 31 32 35 38 39 39 38 36 35 34 37 41 40 38 40 37 30 27 28 30 33 38 44 48 48 49 53 58 67 77 85 90 93 96 100 101 98 100 100 99 102 101 99 99 98 100 103 105 106 102 92 79 68 60 55 52 49 44 38 33 30 31 33
24 24 25 28 30 30 28 27 27 28 28 27 27 27 29 30 30 29 29 30 31 31 30 29 28 27 26 26 27 31 37 41 39 37 39 42 45 46 45 42 39 37 36 36 38 45 51 54 56 55 44 36 36 35 36 43 55 67 73 76 77 77 82 88 92 95 95 95 98 100 99 100 100 100 101 102 99 99 102 102 100 102 101 94 87 78 69 62 57 54 48 41 36 33 33 34 36
23 25 26 27 27 27 26 26 26 27 27 26 25 24 25 25 26 26 26 27 28 27 26 26 27 28 28 31 36 43 50 53 50 46 48 50 50 49 46 44 42 39 38 38 39 43 53 66 77 82 75 63 60 60 60 61 67 77 86 92 96 96 97 99 99 98 97 97 99 100 100 99 100 100 100 100 101 101 103 102 99 99 97 92 88 81 72 65 58 53 47 39 35 34 35 37 39
25 26 26 25 25 25 24 25 25 25 25 24 23 23 23 23 24 25 26 28 29 28 28 31 35 37 38 43 50 55 60 61 57 54 53 52 51 49 48 48 47 45 43 43 44 44 49 66 84 96 97 88 81 82 83 81 81 84 88 93 97 98 99 99 99 99 99 100 99 100 100 99 100 101 100 101 104 103 99 99 98 95 93 90 86 78 71 62 55 52 46 38 35 37 48 62 65
28 28 27 27 26 25 25 25 25 25 25 25 24 24 24 25 27 31 34 36 37 40 43 45 47 49 51 55 60 62 63 62 59 57 56 53 51 51 52 55 57 55 52 50 51 52 53 64 78 89 97 98 97 97 95 93 92 92 91 90 91 92 94 95 97 99 99 100 99 100 100 100 101 100 101 101 101 97 94 96 97 93 89 85 78 71 65 59 55 51 42 36 37 41 61 86 95
36 36 35 33 32 32 31 31 31 30 31 30 29 30 30 32 36 42 47 50 53 58 59 57 57 59 60 62 63 65 65 64 61 58 56 54 51 51 55 62 67 65 62 60 60 62 64 70 78 86 93 95 98 97 95 96 98 99 99 97 94 94 97 98 99 100 100 99 99 100 100 100 100 99 100 100 99 98 98 97 94 89 84 78 73 68 63 59 57 49 39 38 40 43 63 89 95
49 47 46 44 42 42 42 41 39 38 39 37 36 40 42 47 52 56 63 68 70 69 66 63 63 63 64 64 66 67 68 67 65 61 57 55 54 56 59 65 70 72 71 69 67 66 71 77 84 94 99 97 97 95 93 95 99 101 102 102 100 100 100 100 100 100 100 100 100 102 102 101 100 100 100 101 101 100 99 94 88 85 81 77 74 68 64 63 57 46 39 42 44 42 64 94 100
64 62 59 54 51 51 51 50 47 46 47 47 50 57 62 69 73 73 76 78 75 71 68 66 65 65 66 68 68 69 71 72 71 69 67 65 63 63 66 68 70 73 74 74 73 72 74 78 84 93 100 101 101 101 100 100 103 104 105 105 102 101 100 100 100 100 100 100 100 100 101 101 101 101 101 102 102 100 98 93 88 83 79 78 75 69 68 65 53 45 44 48 50 44 55 85 99
84 81 74 67 64 66 67 66 65 66 68 69 73 79 82 84 85 82 80 77 75 73 70 68 68 68 69 69 70 71 76 82 82 81 81 79 74 70 70 72 74 74 74 75 77 77 76 76 78 82 93 102 103 103 103 104 106 107 106 106 104 103 102 101 100 99 100 101 100 100 101 102 102 102 102 100 102 101 96 91 85 81 80 79 76 73 72 63 49 47 50 52 56 52 51 76 98
97 92 86 82 82 85 90 91 92 93 93 91 91 90 87 86 84 81 78 76 74 73 71 70 70 69 69 68 69 71 78 89 93 91 89 87 81 75 73 76 77 75 73 73 74 75 77 77 77 78 87 100 103 103 102 103 106 106 102 101 102 102 102 101 102 100 101 101 100 100 101 102 102 101 100 99 98 96 91 89 87 84 83 80 77 79 74 61 53 52 54 56 62 61 56 70 88
101 95 91 91 93 98 102 103 103 103 99 95 92 88 84 82 79 77 76 75 74 74 73 72 71 70 69 68 69 71 77 89 95 94 93 92 86 80 78 79 78 76 73 71 70 70 73 77 84 89 93 99 101 101 101 102 103 100 97 97 99 101 101 101 101 101 101 102 102 102 102 103 102 99 98 96 94 93 92 95 95 89 84 78 81 88 76 62 60 59 56 58 64 66 63 63 66
103 98 95 96 99 102 103 101 100 98 94 89 87 85 84 81 80 79 77 75 76 75 75 74 73 71 68 65 66 74 84 94 98 97 95 93 87 80 79 79 76 73 71 69 67 66 69 76 87 96 99 98 96 93 93 95 97 97 97 99 101 102 102 101 101 102 102 103 104 103 103 103 103 103 102 98 94 95 97 102 103 95 85 78 83 91 81 67 66 65 62 62 63 66 66 62 60
101 100 98 98 99 100 99 97 94 93 91 89 88 89 90 87 84 82 78 75 75 75 75 73 71 73 73 69 71 81 93 102 105 101 94 89 84 80 79 77 73 70 67 64 63 64 68 74 80 86 94 99 100 99 97 96 97 100 102 104 104 102 101 101 101 102 103 105 106 106 105 105 106 107 107 103 100 99 102 106 106 99 89 82 83 86 83 76 72 70 69 69 66 66 66 65 64
97 99 98 97 97 97 98 96 93 92 92 91 90 90 89 86 82 79 76 75 76 76 75 71 68 73 80 82 86 92 98 105 109 106 97 88 83 82 80 76 71 66 63 62 64 68 71 72 74 77 84 94 100 102 103 102 102 103 104 104 104 102 102 102 102 102 104 103 103 104 106 107 108 110 110 108 107 106 107 107 105 101 94 90 90 87 82 77 72 71 73 76 76 71 67 68 67
94 95 95 96 95 95 95 95 92 90 89 87 86 84 84 82 80 78 77 79 83 82 78 74 73 80 88 92 95 97 101 107 110 108 103 92 84 82 79 75 71 66 66 70 75 79 80 79 79 78 80 83 87 91 95 100 103 104 105 105 104 105 105 105 104 104 106 103 100 101 101 99 98 99 102 103 103 104 103 100 100 100 97 95 96 96 92 84 74 69 71 78 84 82 75 69 67
90 90 89 92 93 92 92 92 89 86 83 83 83 82 82 82 82 83 81 80 81 80 79 79 84 95 101 100 97 97 103 110 108 107 107 100 90 84 77 75 73 70 70 75 80 85 88 88 86 82 80 82 89 97 101 105 108 108 108 106 105 104 104 105 104 102 102 96 93 98 98 97 95 92 90 89 91 93 91 88 91 96 98 97 99 100 98 94 83 72 68 70 75 81 81 75 67
83 84 83 86 90 89 89 92 92 89 84 83 83 81 78 81 90 96 94 90 84 77 79 84 90 100 106 107 105 102 106 110 106 105 107 103 95 87 80 77 75 74 74 74 75 79 83 84 83 81 80 86 96 102 103 106 111 112 109 107 105 102 101 102 100 101 97 80 75 89 98 101 103 101 96 90 86 86 85 85 86 91 94 95 100 101 94 90 84 77 74 72 70 71 73 74 70
76 81 82 86 92 95 94 96 98 92 84 81 81 78 78 88 101 105 102 101 97 86 82 86 90 95 101 107 108 104 104 103 98 101 105 105 100 96 91 84 78 75 74 72 71 74 76 74 72 70 72 82 89 91 96 104 110 110 109 109 106 100 101 102 98 100 98 76 61 70 83 92 98 101 103 102 95 88 84 84 85 89 93 93 97 101 97 89 81 79 82 80 75 70 68 70 72
72 81 87 91 98 102 99 93 90 87 83 81 80 83 92 102 108 108 103 103 104 95 86 84 86 88 91 95 95 94 95 92 94 102 106 107 105 104 104 97 87 79 73 73 73 72 68 63 64 64 69 85 94 93 99 104 103 103 106 110 108 102 102 102 97 99 102 91 75 67 67 72 76 78 84 93 101 100 91 86 83 83 89 93 95 99 101 94 81 77 79 75 70 67 64 66 73
69 81 90 91 93 99 98 89 83 84 87 86 85 92 103 109 110 109 105 103 104 101 93 85 82 84 86 87 87 84 85 93 102 101 100 105 104 105 113 103 86 77 71 68 69 66 63 67 81 87 88 99 103 100 103 103 100 99 101 103 104 102 103 99 96 97 100 101 97 88 78 69 63 59 59 68 87 98 95 92 92 91 90 94 96 94 92 89 80 74 74 72 70 65 59 61 69
72 88 97 94 92 95 97 94 88 87 89 87 86 93 102 108 110 108 103 102 102 103 99 87 75 72 76 81 84 85 90 103 106 89 87 103 103 103 115 99 69 67 68 58 56 60 64 76 95 101 97 100 100 98 101 101 100 101 99 101 102 101 102 100 98 98 98 100 102 100 96 87 77 68 60 58 67 76 77 80 90 98 98 98 97 91 85 82 77 72 69 68 68 67 64 62 63
93 103 106 103 102 102 102 100 95 92 91 86 85 90 98 107 111 108 104 105 103 102 103 95 78 66 64 70 79 92 103 107 103 91 91 106 104 100 114 100 64 60 68 59 58 67 69 72 82 90 97 103 102 100 101 100 102 102 98 100 102 100 102 102 100 99 99 100 101 101 101 100 96 87 72 60 60 66 70 75 82 88 89 89 87 83 78 75 72 69 67 68 73 78 79 75 69
104 107 106 104 104 104 103 100 98 99 99 96 92 91 95 100 104 104 104 107 109 106 105 104 95 82 73 71 75 91 109 108 102 99 97 103 103 96 105 105 75 58 61 61 63 74 78 73 73 79 90 99 101 102 102 102 103 102 99 100 101 99 100 101 100 101 100 100 100 100 100 101 102 99 86 71 67 71 77 86 91 91 88 84 78 74 70 69 69 69 70 74 82 90 90 83 78
102 103 103 103 101 102 102 100 100 102 103 103 99 94 91 90 92 98 102 105 109 108 106 106 107 100 91 84 80 86 103 107 101 101 99 100 104 98 100 110 97 76 71 69 66 72 79 78 75 77 84 90 95 98 98 97 96 92 92 97 100 100 101 100 100 100 100 100 100 100 100 101 102 102 97 88 80 76 81 92 102 103 98 91 82 78 76 76 76 74 77 80 85 93 92 79 74
103 103 102 102 101 100 101 101 102 101 101 102 101 99 96 93 94 98 100 103 106 106 105 103 104 103 95 88 83 82 89 96 96 98 100 99 100 99 96 98 94 85 83 81 76 73 73 74 75 80 87 92 94 95 94 93 89 83 81 83 86 91 96 99 102 101 101 100 101 101 101 101 102 102 102 99 91 82 80 85 91 93 91 86 82 80 81 83 84 84 85 86 85 91 88 72 65
Wind_Speed
78 77 77 76 76 75 74 74 73 72 72 72 72 73 75 76 76 74 70 68 69 70 71 71 69 69 69 69 70 71 72 72 72 71 72 73 75 76 76 77 77 76 77 77 77 78 78 78 77 77 77 77 76 75 74 73 73 73 73 74 74 73 72 72 71 71 71 70 71 72 73 73 73 74 74 72 70 66 66 65 63 62 62 61 60 59 58 56 51 46 43 42 44 48 51 54 58
81 80 79 78 78 77 76 75 75 74 74 74 74 77 78 78 77 75 72 72 71 71 72 72 71 70 70 71 72 72 73 73 73 73 75 77 78 79 79 79 79 78 78 78 78 79 79 79 79 79 79 78 77 76 75 74 74 74 74 75 75 75 75 74 74 74 74 73 74 74 75 74 74 75 74 72 70 68 66 61 57 57 59 60 60 59 58 55 50 46 46 47 49 51 52 55 61
83 82 81 81 80 79 78 77 76 76 76 76 78 80 81 80 78 76 74 74 73 73 73 73 71 71 71 72 73 73 73 74 75 77 79 81 81 81 80 80 80 79 79 80 80 80 80 80 80 81 81 80 79 78 77 76 75 74 75 75 75 76 76 75 75 75 75 75 76 75 75 73 70 70 71 70 69 67 62 58 57 58 59 59 59 59 56 53 51 51 52 52 51 51 53 59 64
86 85 84 83 82 81 80 79 78 79 79 79 82 83 82 81 79 76 76 75 75 74 74 73 72 72 73 73 73 74 75 77 79 81 82 83 83 82 82 82 81 81 81 81 80 80 81 81 81 82 82 82 81 80 79 78 76 76 76 76 76 76 76 75 75 75 75 75 74 72 70 68 67 67 68 67 67 66 62 60 60 60 60 58 57 57 56 53 53 53 53 50 49 52 57 63 66
88 87 86 85 84 83 82 81 81 81 81 82 84 85 83 82 79 78 77 77 77 76 76 75 74 75 75 75 76 78 80 81 83 84 84 84 84 84 84 83 83 82 82 81 81 81 81 82 82 82 83 84 83 82 81 80 78 77 78 77 77 77 76 75 75 74 74 73 71 69 68 69 70 70 69 66 67 68 65 64 61 58 59 58 57 56 56 54 52 50 48 48 51 57 61 63 64
91 90 89 88 87 86 85 84 83 83 84 85 86 86 84 83 81 80 79 79 79 78 78 78 78 79 79 80 82 83 84 84 85 85 86 86 86 86 85 84 84 83 83 82 82 82 82 82 83 83 84 85 85 84 83 81 80 80 80 80 78 77 75 74 73 72 72 72 71 71 71 72 73 73 72 70 70 70 69 66 61 60 60 59 60 58 57 55 52 51 49 51 55 60 61 62 63
93 92 91 91 90 89 88 87 86 86 87 88 89 88 85 83 82 82 82 81 81 80 80 81 82 83 83 85 86 87 87 87 87 87 88 87 87 86 85 84 85 84 84 83 83 83 83 83 84 84 85 86 86 85 83 82 82 82 81 79 77 75 73 73 72 72 73 73 73 74 74 74 73 73 73 72 70 70 68 65 61 62 61 61 64 62 59 57 55 53 53 55 59 60 59 62 61
94 94 93 93 92 92 91 90 90 89 90 90 90 89 86 84 83 83 84 83 83 82 83 84 84 85 87 88 89 90 90 90 89 89 89 89 89 87 86 85 84 84 84 84 84 84 84 84 84 84 85 86 85 84 83 82 83 83 82 80 79 77 76 75 75 74 75 75 75 75 74 75 73 72 73 72 69 67 65 65 65 65 63 61 63 63 61 59 57 56 56 58 62 62 60 62 57
94 95 95 95 94 94 94 93 93 93 93 92 91 90 87 85 84 85 86 85 84 85 85 86 87 88 90 91 92 93 92 93 92 92 92 91 90 88 86 86 85 85 85 85 85 85 85 85 86 85 84 85 84 84 85 84 84 85 86 85 83 81 79 78 76 76 76 75 75 75 75 75 74 72 71 72 71 68 66 67 66 66 65 63 61 61 59 59 59 58 59 62 65 64 62 58 51
96 96 96 96 96 96 96 96 96 96 96 94 93 91 89 87 86 87 88 87 87 88 89 89 90 91 93 94 95 95 95 95 95 95 93 92 91 89 87 87 88 88 87 86 86 86 86 86 86 85 85 84 84 85 84 84 84 85 86 86 84 83 81 79 78 77 77 76 76 75 75 74 74 73 70 70 72 71 69 68 66 64 63 63 61 61 61 61 61 60 61 65 65 62 58 52 48
97 97 97 97 97 97 98 98 98 99 98 96 95 93 91 89 89 89 89 89 90 91 92 93 94 95 96 98 98 97 97 98 97 96 94 92 91 90 89 88 89 89 88 88 86 87 86 83 83 85 86 85 84 85 84 84 85 85 85 85 84 84 83 81 80 78 77 77 76 75 74 73 74 74 71 69 70 71 69 67 66 63 61 61 60 61 63 62 61 61 64 64 61 57 52 48 47
99 99 99 98 98 99 100 101 101 101 100 99 98 96 94 93 91 91 92 93 93 94 95 96 98 98 99 100 100 100 100 99 98 96 95 93 92 91 90 89 90 90 89 88 86 86 86 82 83 86 87 87 87 86 85 85 86 85 86 86 85 87 85 82 80 79 78 77 76 75 74 74 73 74 72 69 68 68 68 67 64 61 60 59 59 61 62 63 63 62 62 59 55 50 46 44 45
100 100 100 100 101 101 101 102 103 103 102 101 101 100 99 98 96 96 96 96 96 97 98 99 100 101 101 102 102 102 101 99 98 97 95 94 93 92 91 91 91 90 89 87 86 86 86 85 85 86 87 87 87 87 87 86 86 86 87 87 86 88 87 84 82 80 79 78 78 76 75 74 73 72 71 69 67 66 64 64 62 60 60 59 60 62 62 63 62 58 55 52 48 43 41 42 45
101 101 101 102 103 103 104 104 105 104 103 103 103 103 102 101 101 100 100 100 101 101 102 102 102 102 103 104 103 103 101 100 99 97 96 95 94 93 92 91 90 89 88 87 86 86 86 86 86 86 86 87 87 87 87 87 86 86 86 86 86 88 88 86 85 83 81 80 78 77 75 74 72 70 68 66 64 64 62 61 60 60 61 61 60 59 60 60 57 53 49 45 42 41 41 42 43
101 102 102 103 104 104 105 106 106 105 104 104 104 104 103 103 103 102 102 103 103 104 104 104 104 103 104 104 103 103 102 101 99 97 96 95 94 93 91 90 89 88 88 88 87 87 86 86 86 86 87 87 87 87 87 87 86 86 86 86 86 87 88 87 87 86 84 81 79 76 74 71 68 66 63 61 59 59 59 59 58 58 58 58 56 55 55 53 50 47 43 41 40 41 40 40 39
99 101 102 103 105 106 106 106 106 106 105 105 105 104 103 103 103 103 103 104 104 104 104 104 104 103 104 104 103 103 102 100 99 97 95 93 93 92 91 90 89 89 89 89 88 88 87 87 86 86 87 88 88 87 87 87 86 86 86 86 86 87 87 87 87 87 85 82 79 74 71 67 64 61 58 58 57 56 57 57 56 56 54 53 52 49 47 45 43 42 42 41 40 39 38 37 37
97 99 101 102 104 105 106 106 107 106 106 106 106 105 104 104 103 103 103 103 104 103 103 103 103 103 103 103 103 102 100 98 97 95 94 93 92 91 91 90 90 90 89 89 89 89 88 87 86 86 87 87 88 87 86 86 86 86 86 87 88 88 88 87 86 86 84 80 76 71 66 62 59 57 55 55 55 55 55 55 54 53 52 50 48 45 44 44 45 45 45 45 41 39 38 36 36
94 96 98 100 102 103 104 104 105 105 105 105 105 105 104 103 103 103 103 103 103 103 102 103 103 102 102 102 101 99 98 96 95 95 93 92 92 92 92 91 90 90 90 89 89 89 88 87 86 85 86 86 86 86 86 86 86 87 87 88 88 89 88 86 84 82 79 75 71 66 61 58 55 54 53 53 54 54 53 52 52 51 50 49 47 47 49 50 49 48 48 45 41 38 37 37 37
93 94 96 98 100 100 100 102 103 103 102 103 103 103 102 102 101 101 101 102 102 102 102 101 101 101 100 99 98 97 96 95 94 93 92 92 92 93 92 91 90 90 89 89 89 88 87 86 85 84 83 84 85 85 86 86 87 88 88 87 87 86 84 82 79 77 73 69 66 61 57 55 53 51 51 53 54 52 49 47 47 48 48 49 50 52 52 51 49 47 46 42 39 38 37 37 38
91 92 95 97 97 96 97 99 100 100 100 101 101 101 100 100 99 99 99 100 100 100 100 100 99 99 98 97 96 95 94 93 93 92 92 91 92 92 91 90 89 88 88 87 87 86 85 84 83 82 82 83 84 85 85 86 86 85 85 84 82 80 78 76 73 71 68 65 61 57 55 54 51 50 52 53 54 51 48 47 46 47 49 50 51 52 51 49 47 45 43 41 39 37 37 38 39
87 88 92 95 95 94 95 97 98 98 97 98 98 98 98 97 97 97 97 97 98 98 98 97 97 96 95 94 93 92 92 91 91 91 91 90 90 89 89 88 86 86 86 85 84 84 83 82 82 82 81 81 82 82 81 81 81 80 79 78 76 75 73 71 69 67 65 62 59 55 53 53 51 51 53 54 55 53 53 53 53 54 53 51 50 49 47 46 45 44 43 41 39 37 38 39 41
82 85 90 92 91 91 92 92 93 94 93 94 94 94 94 93 93 94 94 94 94 94 94 94 93 92 92 91 91 90 90 89 89 89 88 88 87 86 86 85 84 83 83 82 81 81 80 80 79 79 78 78 77 76 75 75 74 74 74 73 72 71 69 68 66 65 63 61 58 55 53 53 52 53 54 55 56 55 56 57 58 58 54 50 47 45 44 44 44 44 42 41 40 40 41 42 44
77 81 86 87 87 88 88 88 88 88 88 89 89 90 90 89 90 90 90 90 90 90 90 90 88 88 88 88 88 87 87 86 85 85 85 85 84 83 82 81 80 80 80 79 77 76 76 75 75 75 74 73 72 71 71 70 70 70 69 69 68 68 66 65 64 62 61 60 57 56 54 53 53 55 55 56 57 57 55 53 53 52 49 47 46 46 47 47 45 43 43 43 43 44 45 46 47
73 77 81 82 81 83 84 83 84 84 85 86 86 86 87 87 86 86 86 86 86 86 85 84 83 83 83 84 84 84 83 82 81 81 82 81 80 79 78 77 76 75 75 74 73 72 71 71 71 71 71 70 70 69 69 68 68 67 67 66 66 65 64 63 62 61 59 59 58 56 55 54 54 55 56 56 57 57 55 53 52 52 50 50 50 51 51 49 46 45 45 45 46 46 46 46 46
71 75 77 77 77 79 80 80 81 82 82 83 82 83 84 84 82 82 81 81 81 81 80 79 78 79 79 80 80 79 78 77 77 77 77 76 75 74 73 72 71 70 70 70 70 69 68 68 68 68 68 68 68 68 67 67 66 65 65 64 63 62 61 60 60 59 58 58 57 56 55 54 54 55 56 56 56 56 57 56 56 55 54 53 52 49 47 46 46 45 44 45 45 46 47 46 46
71 74 74 74 74 77 78 78 78 79 78 77 77 78 79 78 77 76 76 76 75 74 74 73 73 75 76 76 75 74 73 72 72 71 71 71 71 70 68 67 67 67 68 69 69 68 68 67 66 67 66 66 66 66 66 66 65 64 63 62 61 60 59 58 57 57 56 56 55 55 54 53 53 53 53 53 52 52 53 54 54 54 53 51 48 44 42 42 42 42 43 44 45 46 47 47 48
71 73 72 72 74 76 77 76 76 75 74 73 73 74 74 72 71 70 70 70 69 68 69 69 70 72 72 71 70 70 69 68 67 67 68 68 68 67 66 66 66 66 67 68 68 67 67 66 65 64 64 63 63 63 64 63 63 62 61 60 59 58 57 55 55 54 53 53 53 51 49 48 45 44 45 44 44 45 45 46 46 45 43 41 38 38 38 38 39 41 43 44 44 46 47 48 49
70 71 71 71 72 74 75 75 74 73 72 71 71 70 69 67 67 67 66 65 64 65 66 66 68 69 69 68 67 66 66 66 66 67 67 67 67 66 65 66 65 64 65 66 67 66 65 64 62 62 62 61 61 60 61 61 61 61 60 59 57 56 55 54 53 52 51 51 49 45 43 40 35 32 33 33 34 36 36 37 39 38 36 35 34 34 36 38 40 42 42 44 45 47 48 50 52
70 70 70 70 72 73 74 74 73 71 69 69 67 66 65 65 65 64 64 63 63 65 65 66 68 69 69 67 66 65 65 66 67 68 67 67 67 65 65 66 64 63 62 63 65 64 62 59 57 58 59 57 58 59 58 58 58 58 57 57 56 54 53 52 51 49 48 49 46 43 40 36 33 29 30 32 33 35 34 33 34 36 35 36 37 36 39 42 43 43 43 45 46 48 50 52 54
69 69 70 70 71 72 73 73 71 69 68 67 65 63 64 67 66 64 64 63 64 67 67 68 70 70 69 67 66 66 67 68 68 68 67 67 66 65 63 63 62 61 59 59 61 60 58 54 51 54 58 58 58 57 56 56 55 55 55 55 54 53 52 50 48 45 43 44 43 40 38 38 37 35 37 39 38 41 41 37 37 39 40 42 43 44 46 46 44 43 44 45 46 48 51 54 54
68 68 69 70 71 72 73 72 70 69 68 67 65 63 65 68 66 64 65 63 65 68 68 69 70 70 68 67 66 66 67 68 68 67 66 65 64 62 61 60 59 58 56 56 57 55 54 54 50 52 59 61 58 56 54 54 53 53 53 53 52 51 50 47 46 42 37 37 39 41 41 42 42 40 42 44 41 42 44 43 44 46 45 45 45 46 45 43 43 45 44 44 46 49 51 52 51
67 67 69 70 71 72 72 71 70 70 69 67 65 63 66 70 68 65 65 64 66 68 68 69 69 69 68 67 66 65 66 67 66 65 63 62 61 60 58 57 55 53 53 53 54 52 51 53 53 53 57 58 56 54 53 51 51 51 50 50 49 49 47 45 45 43 40 40 42 44 43 43 43 41 41 44 43 42 43 43 45 45 43 41 42 43 43 45 46 44 43 44 47 49 49 48 48
66 67 68 69 70 71 70 70 70 70 69 67 65 64 66 69 67 65 64 63 65 66 67 68 68 68 66 65 64 63 64 64 64 61 60 59 58 57 55 53 51 49 48 49 51 52 50 51 53 53 54 53 52 50 48 47 47 47 47 46 45 44 43 42 42 41 41 41 42 42 42 41 41 39 39 41 42 43 43 40 39 40 41 42 43 46 49 48 44 41 44 47 48 46 45 44 43
65 65 65 66 68 69 69 68 68 68 67 66 64 63 64 66 65 64 63 63 64 65 65 66 66 66 64 62 61 60 61 61 60 58 56 56 55 53 52 49 47 44 44 46 47 49 49 49 50 51 51 48 47 45 43 42 41 41 42 42 41 40 39 38 38 38 37 36 36 36 35 33 33 34 36 38 39 40 40 38 38 41 44 45 46 48 48 42 40 44 48 49 46 43 41 39 37
63 62 62 64 66 67 67 66 66 66 66 65 63 62 63 63 63 62 61 62 64 64 64 64 64 63 61 59 58 57 57 58 56 54 53 52 51 49 48 46 44 43 43 43 44 45 45 44 44 46 47 45 43 42 40 38 36 36 36 36 37 36 35 34 34 33 32 31 29 27 28 29 31 34 36 37 38 39 39 40 41 43 44 45 44 43 40 39 43 48 48 46 43 40 38 35 32
60 60 61 63 65 65 65 64 63 64 64 64 62 61 61 61 60 60 59 60 62 62 61 61 60 59 57 55 54 52 53 54 53 51 50 49 48 46 45 44 43 42 42 42 42 43 42 40 39 40 42 42 40 40 38 37 35 34 33 32 31 31 30 29 29 28 27 26 26 27 29 31 32 34 34 35 36 36 37 38 40 41 42 42 40 38 39 44 48 49 46 43 39 36 34 32 30
58 60 62 63 63 63 63 62 62 63 63 62 61 59 58 58 57 57 57 57 59 59 58 57 56 54 52 50 49 49 50 52 51 49 49 48 46 45 43 42 42 41 41 41 41 41 41 39 36 36 38 39 38 37 36 36 35 33 32 30 29 28 28 27 27 26 25 26 28 29 30 31 32 32 33 35 37 38 38 39 40 41 41 40 39 41 44 48 49 47 42 38 34 31 28 27 26
58 59 61 61 62 61 61 61 61 60 60 60 58 56 56 55 54 54 54 55 55 54 53 52 52 50 49 47 47 48 50 52 50 48 48 47 45 43 41 41 40 40 40 40 39 39 39 38 37 37 37 37 36 34 33 33 33 32 31 30 29 28 26 26 25 25 26 28 29 30 32 33 34 36 38 40 41 41 40 40 40 40 41 42 43 46 47 48 47 43 38 33 30 26 21 20 22
56 57 59 59 59 59 58 58 58 57 57 56 55 53 53 52 51 51 52 52 52 51 51 50 49 48 47 46 47 48 50 51 50 48 47 46 44 42 40 39 39 39 40 39 38 38 38 38 38 37 36 35 35 33 32 31 31 30 29 28 27 26 25 25 26 27 28 30 32 33 35 37 38 39 40 40 40 40 39 39 40 41 43 44 45 45 45 44 41 37 33 29 25 23 21 20 21
55 56 56 57 56 56 55 55 55 54 53 53 51 50 50 50 49 49 49 50 50 50 50 48 47 47 46 46 47 48 49 49 49 48 47 46 44 41 39 38 39 39 39 39 39 38 38 37 37 36 35 33 33 34 33 31 31 30 29 27 27 27 27 28 29 30 31 33 34 36 38 39 40 40 40 39 39 39 40 42 43 43 44 43 43 42 40 39 35 32 29 26 23 21 19 18 19
52 53 54 54 53 53 53 53 52 51 50 49 48 47 47 47 47 47 47 48 49 50 48 47 46 46 45 46 47 46 47 48 49 48 47 45 42 40 39 39 39 39 40 40 40 40 39 37 37 36 35 34 34 34 34 32 32 32 31 30 31 31 32 32 33 34 34 35 36 38 39 40 40 40 40 40 41 42 43 44 44 44 43 41 39 38 36 33 30 28 26 24 22 20 18 18 19
50 51 51 50 49 49 49 49 49 47 46 46 45 45 45 45 46 47 47 48 48 48 47 45 45 45 45 46 45 44 45 47 49 48 46 45 42 40 39 39 40 40 40 40 41 41 40 39 37 37 37 37 37 37 36 35 34 34 33 33 34 35 36 37 37 38 38 39 40 40 41 42 42 43 43 43 44 44 45 45 45 44 42 39 37 35 32 29 25 24 24 23 22 21 19 19 21
48 49 48 47 46 45 46 46 46 45 44 43 43 44 43 44 46 47 47 47 47 47 46 45 45 45 45 45 44 44 44 46 48 48 46 45 43 41 40 40 41 41 41 41 41 42 41 40 39 37 37 39 40 40 39 38 37 36 35 35 36 38 39 40 40 41 42 42 43 43 44 45 46 46 46 46 46 46 46 45 44 42 39 36 34 32 29 25 22 21 22 23 23 22 20 20 22
48 48 46 44 44 44 44 45 45 44 43 43 43 44 43 44 46 47 46 46 46 46 46 45 45 45 45 44 44 43 44 46 48 48 47 46 43 41 40 41 42 43 42 42 42 42 41 41 40 39 39 39 40 41 42 42 42 41 40 39 39 40 40 41 42 43 44 44 45 46 47 48 48 48 48 48 48 46 45 43 42 40 37 33 29 28 26 23 21 20 21 22 23 23 23 22 24
48 46 45 43 43 43 44 44 45 44 44 44 44 44 43 44 46 47 46 45 45 45 45 45 44 45 45 44 43 43 43 45 48 48 47 46 44 41 41 42 43 43 43 42 41 41 41 41 41 41 41 41 41 42 42 43 44 44 43 42 42 42 42 42 42 43 44 45 46 47 48 48 48 49 49 48 47 44 42 41 40 38 34 30 26 24 24 22 21 20 21 22 23 24 25 25 26
47 46 45 43 43 44 44 45 45 44 44 44 44 44 44 45 46 47 45 45 45 45 44 44 44 44 45 44 43 42 42 44 47 48 47 46 44 42 41 42 43 43 42 41 40 40 41 41 42 42 42 42 42 42 42 42 43 44 44 44 45 45 45 44 44 44 45 45 47 48 48 48 48 48 48 47 45 43 42 41 39 36 33 29 26 24 24 24 24 23 23 23 23 25 26 27 27
47 46 45 44 43 44 45 45 45 44 44 44 44 44 45 45 46 46 45 44 44 43 43 44 44 44 44 43 43 43 42 43 46 48 47 45 44 42 41 42 42 42 40 38 37 38 39 40 41 42 42 43 43 43 43 44 44 44 45 45 45 46 46 47 46 47 47 47 48 48 49 49 48 48 47 46 45 43 42 41 40 37 34 31 29 28 28 28 28 27 26 25 25 26 27 28 29
48 46 46 45 44 44 45 46 45 44 44 44 44 44 44 44 45 45 44 43 42 42 43 43 43 43 43 43 43 43 42 43 45 47 47 46 44 42 41 41 41 39 37 36 34 34 35 37 38 39 40 40 41 42 43 44 44 45 45 45 44 44 44 45 45 45 46 46 45 45 46 47 47 47 46 46 45 44 43 42 41 39 36 35 34 33 31 31 31 31 30 28 27 27 28 29 30
49 47 46 46 45 45 45 46 45 45 44 44 43 43 42 42 43 44 44 44 43 42 42 42 42 42 43 43 43 42 42 43 44 46 46 46 44 43 41 40 40 38 36 34 33 32 32 33 34 35 34 34 36 38 39 41 42 42 43 43 42 41 41 42 43 43 44 44 41 41 42 43 43 44 45 45 45 44 44 43 42 40 38 37 36 35 33 32 32 32 31 31 30 30 30 31 31
49 48 46 46 46 45 45 46 45 45 44 44 43 42 42 42 42 43 44 44 44 43 42 42 42 42 42 43 43 42 42 43 44 44 45 45 44 43 42 41 39 38 36 34 33 32 31 31 31 31 30 31 34 36 37 39 40 40 41 40 39 37 37 39 40 41 45 44 40 39 39 40 41 41 41 42 43 44 44 43 43 41 40 38 37 35 34 34 33 32 32 32 33 33 33 33 33
49 48 47 46 46 46 46 46 45 45 45 44 43 42 41 41 40 41 42 44 44 43 43 42 42 42 43 44 43 42 42 43 42 43 44 45 45 44 43 42 41 39 37 35 33 32 32 31 29 28 29 32 36 37 37 39 39 40 40 39 38 37 37 38 38 39 45 45 41 40 41 41 42 41 41 42 42 44 44 44 44 43 42 40 38 36 35 35 34 34 34 35 35 35 35 35 35
49 48 48 47 47 47 47 47 46 45 45 44 43 41 40 40 40 40 42 44 45 44 43 42 42 42 43 43 43 42 41 40 39 40 43 44 45 45 44 43 42 40 38 35 33 33 31 28 27 27 29 32 35 36 35 36 38 39 40 40 42 41 41 41 40 40 44 46 45 44 44 44 45 44 44 44 43 44 44 45 45 44 44 42 40 39 38 38 39 39 38 38 38 37 37 37 37
49 48 48 49 48 48 48 47 47 45 44 43 42 40 40 40 40 40 41 43 45 44 43 42 41 41 41 41 41 39 37 34 31 31 38 44 46 46 46 46 45 42 39 35 34 33 29 26 25 27 31 34 36 36 35 36 38 38 38 39 42 43 44 44 43 43 45 46 47 48 49 49 49 48 47 45 44 43 44 45 46 46 45 44 44 43 43 43 44 44 44 43 41 40 39 38 38
48 48 49 49 49 48 47 47 46 46 45 44 42 41 40 39 39 40 41 43 44 44 43 43 42 41 40 39 38 36 34 30 23 24 32 41 46 46 46 49 47 42 40 37 34 33 30 28 26 29 38 43 42 41 41 41 42 41 39 40 42 43 45 46 46 46 47 48 49 50 52 52 52 51 50 48 46 45 44 44 44 45 46 46 46 47 47 48 48 47 47 46 44 42 41 40 39
46 47 47 47 47 47 47 47 46 46 46 45 43 41 40 40 40 41 43 45 46 45 45 44 43 41 39 38 36 34 32 28 26 30 36 41 46 48 47 48 47 40 38 36 33 33 33 32 30 34 43 48 45 45 47 48 48 47 46 46 47 46 47 49 50 50 51 52 54 54 55 55 54 54 54 52 50 49 48 46 45 45 46 46 47 48 49 49 49 49 48 47 45 44 43 42 42
45 47 47 46 46 46 47 47 46 45 45 45 44 42 42 42 43 43 45 47 47 47 46 45 43 40 38 38 37 35 34 33 35 42 46 46 50 53 49 48 48 43 39 37 35 36 38 37 36 38 44 48 47 47 49 50 51 51 50 52 53 52 52 53 54 53 53 54 56 57 58 57 56 56 56 55 54 52 51 50 49 48 48 48 49 49 49 49 49 49 49 48 48 46 45 45 44
46 48 47 47 47 48 48 48 47 47 46 46 45 45 44 44 44 44 46 48 48 47 46 44 43 40 39 39 38 38 39 39 41 47 52 53 55 57 54 51 50 48 45 44 43 43 43 42 40 41 44 48 49 48 49 51 52 51 51 53 55 56 55 56 56 55 53 52 52 54 56 57 57 57 57 57 57 55 53 52 52 52 52 52 51 51 51 51 51 51 51 51 51 50 49 48 47
48 49 49 48 48 49 49 49 49 49 49 49 47 47 46 45 45 46 48 48 49 48 47 45 43 42 41 41 41 41 42 43 44 47 51 54 57 58 57 55 53 52 50 50 50 49 48 46 44 44 45 48 50 51 52 53 53 53 53 55 57 58 58 58 58 58 57 56 54 55 56 57 58 57 57 57 58 58 56 55 54 54 54 54 53 53 52 53 53 53 53 53 53 53 52 51 50
Wind_Direction
251 251 252 253 254 254 255 256 257 258 258 259 260 260 261 262 265 267 269 268 267 269 271 273 275 276 277 279 279 280 280 281 281 281 282 285 287 288 289 290 290 290 290 290 291 291 292 293 294 295 295 295 294 294 293 293 292 291 291 290 290 289 288 287 287 287 287 288 289 289 290 291 291 293 295 296 296 295 294 296 298 299 299 300 301 304 307 308 305 301 297 296 299 303 307 308 308
251 252 252 253 254 255 255 256 257 257 258 258 259 259 260 263 265 268 269 268 268 269 271 273 275 276 278 279 279 279 280 281 281 281 283 285 287 288 289 290 290 289 289 289 290 290 291 293 294 295 294 294 293 292 291 291 290 289 289 289 289 289 289 289 289 290 290 291 291 290 290 291 292 292 293 294 296 298 299 299 300 300 301 301 301 303 306 306 302 298 297 297 298 302 305 306 308
252 252 253 253 254 255 255 256 256 257 257 257 258 259 261 263 266 268 268 269 269 270 271 273 275 277 278 279 279 280 280 281 281 282 284 286 287 288 289 289 289 288 288 288 289 290 292 293 294 293 293 292 291 290 290 289 289 288 288 288 288 288 288 289 290 290 291 291 292 293 293 293 293 294 294 294 295 299 301 299 298 299 301 301 301 303 304 302 299 297 297 296 298 301 302 305 308
253 253 253 254 254 254 255 255 256 256 257 257 258 259 262 264 266 267 268 269 269 270 271 272 274 276 278 278 278 280 280 281 282 283 285 286 287 288 288 288 288 287 288 288 289 291 291 292 292 292 292 291 290 290 289 289 289 289 289 288 288 288 288 289 290 290 291 291 292 294 294 295 295 297 298 297 297 300 300 297 297 297 299 299 300 301 301 298 295 296 295 295 297 299 301 305 308
254 254 254 254 254 255 255 255 256 256 256 257 258 260 262 263 265 267 268 268 269 269 269 270 272 275 277 277 278 279 281 282 283 284 285 286 287 288 288 287 287 287 287 288 289 289 290 290 290 290 290 290 289 289 289 290 290 290 289 288 287 287 288 289 290 290 291 292 293 293 294 296 296 297 298 298 298 300 299 297 295 296 299 298 298 299 298 295 293 293 293 294 297 300 303 306 308
254 255 255 255 255 256 256 256 256 256 257 258 258 260 262 264 265 266 267 268 268 268 268 268 270 273 276 277 279 280 281 282 283 284 286 287 287 287 286 286 286 286 286 287 288 288 288 288 288 288 288 288 289 289 290 291 291 290 288 287 287 288 289 289 290 291 292 293 293 294 294 295 296 297 297 297 298 299 299 298 295 295 298 296 296 296 294 292 291 291 291 294 299 304 306 307 308
254 255 256 256 256 257 257 257 257 257 257 258 259 260 262 263 265 266 266 267 267 268 268 268 270 273 275 277 279 280 282 282 283 285 286 286 286 285 285 285 285 285 285 286 287 287 287 287 286 287 287 288 289 290 291 292 292 290 288 288 289 290 290 290 291 292 293 293 293 294 294 295 296 297 297 297 299 299 300 299 296 294 295 295 295 294 293 291 290 290 291 296 302 306 307 307 307
254 255 255 256 257 257 257 257 257 257 258 258 259 261 262 263 264 265 266 266 267 268 268 268 270 272 275 277 279 280 281 283 284 285 285 285 284 284 284 284 284 284 285 285 286 286 285 285 285 286 287 288 289 290 291 291 291 290 289 290 290 290 290 290 291 291 292 292 293 293 294 295 295 296 297 298 298 298 298 297 296 294 295 295 293 293 292 290 289 290 292 297 303 306 305 305 304
254 255 256 256 257 257 258 258 258 258 259 259 260 261 262 263 264 265 266 267 267 267 268 268 270 272 274 276 278 280 281 283 284 284 284 283 283 283 283 283 283 284 284 284 284 284 284 284 285 285 286 287 288 289 290 290 290 289 290 290 290 290 290 290 291 291 291 292 292 293 294 295 295 296 298 298 298 296 295 294 293 292 293 294 292 290 289 288 288 288 292 298 303 304 302 301 300
253 254 255 256 257 257 258 258 258 259 259 260 260 262 263 263 264 264 266 267 267 267 268 269 270 272 274 276 278 279 281 282 283 283 283 282 282 283 283 282 282 283 283 283 283 283 283 285 285 285 285 286 287 288 289 289 290 289 289 290 290 290 291 291 291 291 292 292 292 293 294 295 295 296 297 297 296 295 294 293 292 291 290 290 289 288 287 287 287 288 293 298 300 300 298 297 297
252 253 255 255 256 257 257 257 258 258 259 260 261 262 263 263 263 264 265 267 267 268 268 270 271 272 274 276 277 279 280 281 282 282 281 282 282 282 282 281 281 281 282 282 283 283 284 285 286 286 286 287 287 287 287 288 289 289 289 290 290 289 289 290 291 291 291 291 292 292 293 294 294 295 295 294 293 293 293 292 291 290 288 286 287 286 285 285 285 288 293 296 296 296 295 294 294
252 253 254 254 255 255 256 256 257 258 259 260 260 261 262 262 263 263 265 266 266 267 268 269 271 272 274 275 277 279 280 280 280 280 281 281 281 281 280 280 280 281 282 283 283 283 284 284 285 286 287 287 287 287 287 287 288 288 289 289 289 288 288 289 290 290 291 291 291 292 293 293 294 295 295 293 291 291 291 290 290 288 286 285 284 283 282 282 284 287 292 294 294 293 293 293 293
251 252 253 254 254 254 255 256 257 258 259 260 260 260 261 262 262 263 264 265 266 267 268 269 270 272 274 275 277 278 278 279 279 280 280 280 280 280 280 280 281 281 282 282 283 283 284 284 284 285 286 287 287 288 288 288 288 288 288 289 289 289 290 291 291 291 291 291 292 293 294 294 295 294 294 292 290 289 288 289 288 286 284 282 281 280 280 282 284 288 291 292 291 291 292 293 293
251 252 252 253 254 254 255 256 257 257 258 259 260 261 261 262 263 263 264 265 266 267 268 269 270 272 274 275 276 277 278 278 279 279 279 279 280 280 280 280 281 281 281 281 282 282 282 283 283 284 284 285 286 287 288 288 288 288 288 288 289 289 291 291 292 292 292 292 293 294 294 295 295 294 292 290 289 289 289 288 287 284 283 283 282 282 283 284 286 288 289 288 289 291 292 293 292
251 252 252 253 254 255 255 256 257 258 259 259 260 261 262 262 263 264 265 266 267 268 269 269 271 272 274 275 276 276 277 278 278 278 279 280 280 280 280 280 280 280 280 280 281 281 281 282 283 283 284 284 285 285 286 286 286 287 287 287 288 288 290 291 291 292 292 292 292 293 294 294 293 292 290 289 288 287 287 287 286 285 284 284 284 285 286 287 287 286 285 286 290 292 293 292 291
252 252 253 253 254 255 255 256 257 258 259 260 260 261 262 263 263 264 265 266 267 268 269 270 271 272 273 274 275 276 276 277 278 279 279 279 279 279 279 279 279 279 279 280 280 281 281 282 282 283 283 283 284 284 284 285 285 285 286 286 286 287 288 289 290 290 291 292 292 293 293 293 292 290 288 287 287 286 285 285 286 286 285 285 285 286 288 288 286 283 283 286 290 293 293 292 290
251 252 253 254 255 255 256 257 258 258 259 260 261 262 263 263 264 265 266 267 268 269 269 270 271 271 272 274 275 276 276 277 277 278 278 278 278 278 277 277 278 278 279 280 280 281 281 282 282 282 283 283 283 284 284 284 284 284 284 285 285 286 286 287 288 289 290 291 292 292 292 291 290 289 287 287 286 286 285 285 285 286 286 285 285 286 288 290 289 285 284 287 289 291 292 291 289
252 252 253 254 255 256 257 258 258 259 260 261 261 262 263 264 265 266 267 267 268 269 269 270 271 272 273 274 274 275 276 276 277 277 277 277 277 276 277 277 278 279 279 280 280 281 281 282 282 282 282 283 283 283 283 283 283 283 283 284 284 285 285 286 287 287 288 289 290 291 291 290 288 287 286 286 286 287 287 286 286 286 287 285 283 285 288 290 288 286 285 286 288 290 291 290 289
253 254 254 255 255 256 257 258 259 260 260 261 262 263 264 265 265 266 267 267 268 268 269 270 271 272 273 273 274 274 275 276 276 276 276 276 276 277 278 278 279 280 280 281 281 281 281 282 282 282 282 282 282 282 282 283 283 283 283 283 283 284 284 285 285 286 287 288 289 290 289 288 287 285 284 285 287 288 288 286 285 286 286 285 283 285 287 287 286 285 285 285 288 290 291 290 289
255 256 256 256 257 257 257 258 259 259 260 261 262 263 264 265 265 266 266 267 267 268 269 270 271 272 272 273 273 274 275 275 275 275 276 276 277 278 279 279 280 281 281 281 281 281 282 282 282 281 281 281 281 281 281 281 281 281 281 282 282 282 283 283 284 285 286 286 287 287 286 286 285 284 283 283 283 283 281 281 283 285 286 285 285 285 286 286 286 285 285 286 289 292 292 291 291
255 256 257 257 258 258 258 258 259 260 260 261 262 263 263 264 264 265 266 267 267 268 269 270 270 271 272 272 273 274 274 274 275 276 277 278 278 279 279 280 281 281 281 281 281 281 282 282 282 281 280 280 279 279 279 279 279 279 280 280 280 281 281 282 282 283 284 284 284 284 283 283 283 282 281 280 280 279 276 276 278 282 284 285 284 284 285 285 286 286 286 289 292 292 292 291 291
256 257 257 258 258 259 259 260 260 261 262 262 262 262 263 263 263 264 265 266 267 268 269 270 271 272 272 273 273 273 274 274 276 277 278 278 278 279 280 281 281 281 281 281 281 281 282 281 281 280 279 279 278 277 277 277 277 277 278 278 279 279 280 280 280 280 281 281 281 281 280 281 281 280 279 279 279 279 278 278 279 281 283 283 284 284 286 287 287 287 288 290 291 291 291 291 291
256 257 258 258 259 260 260 261 262 262 262 262 262 263 263 263 264 264 266 267 268 269 270 271 272 273 273 274 274 274 275 276 277 278 278 279 279 280 280 281 281 281 281 282 281 281 281 280 280 279 278 277 277 276 275 275 274 275 275 276 276 277 277 278 278 278 279 280 280 279 280 280 279 279 279 279 279 280 280 281 282 283 283 282 284 287 289 289 288 288 289 291 292 293 293 293 293
257 258 258 259 260 261 261 260 261 261 262 262 263 263 264 264 265 266 267 268 269 270 271 273 273 274 274 274 275 275 276 277 278 278 279 279 280 280 281 281 281 281 282 282 281 280 280 280 279 278 278 277 276 276 275 274 274 273 273 274 274 274 275 275 276 277 277 278 279 279 279 279 278 278 278 277 277 278 279 279 280 281 282 283 285 288 289 288 288 289 291 293 295 296 296 295 294
257 257 258 259 260 260 260 260 260 261 261 263 264 265 265 266 267 268 269 270 270 272 273 274 274 274 274 274 275 276 277 278 278 279 279 280 280 280 281 281 282 282 282 281 281 280 280 279 279 278 278 277 277 276 275 274 273 273 272 272 273 273 273 274 274 275 275 276 277 278 278 277 277 277 277 277 277 278 278 278 279 281 283 286 288 289 289 288 290 292 294 295 296 296 296 295 294
257 257 258 259 260 260 260 260 261 261 262 263 265 265 266 267 269 270 270 271 272 273 274 274 274 274 274 274 275 276 277 278 279 279 279 280 280 280 281 282 282 281 281 281 281 280 280 279 279 278 278 277 277 276 275 274 273 272 272 271 271 272 272 272 272 273 274 275 276 276 276 277 277 277 277 278 279 279 279 279 280 283 285 287 289 289 288 290 292 294 295 296 296 296 296 295 295
257 258 259 260 260 261 261 261 261 262 263 264 265 266 267 269 270 271 271 272 273 273 273 273 273 273 274 275 276 277 278 279 279 279 279 279 280 281 281 281 281 281 281 281 280 280 280 280 280 279 278 277 276 275 274 273 272 271 270 270 270 270 270 270 270 271 272 273 274 276 277 278 278 280 281 282 283 283 282 283 284 286 287 285 283 284 287 290 293 294 296 296 297 297 297 297 297
259 260 261 261 261 262 262 263 262 263 264 265 266 267 269 271 271 271 271 272 273 273 272 272 272 273 273 274 276 277 278 278 278 278 278 279 280 281 281 281 281 281 281 281 281 280 280 281 281 281 278 276 275 273 272 271 271 270 270 269 269 268 268 269 269 270 271 272 273 274 275 276 278 284 286 284 283 283 284 285 285 285 282 279 278 283 287 291 294 294 295 296 296 297 298 299 299
259 260 261 261 261 262 263 264 264 265 266 267 268 269 270 270 269 270 271 271 272 272 271 271 271 271 272 274 276 277 277 277 277 278 279 279 280 281 280 281 281 281 281 281 281 281 281 281 283 282 279 275 273 271 270 270 270 270 269 269 269 268 267 268 268 270 271 271 272 271 269 268 270 277 277 275 274 276 281 281 278 273 271 275 278 283 288 291 292 292 293 295 296 297 299 300 300
259 259 260 260 261 262 263 264 265 266 266 266 267 268 269 268 268 269 269 270 271 270 270 270 271 272 274 275 276 276 277 277 277 278 279 279 280 280 280 280 281 281 280 280 280 280 280 279 277 277 277 275 273 272 270 270 270 269 269 268 268 268 267 268 269 270 272 271 269 266 264 263 265 269 271 274 276 277 280 276 268 268 273 277 279 283 289 290 291 293 295 297 299 300 301 301 299
258 259 259 260 260 261 262 264 265 265 265 265 266 267 267 267 267 267 268 269 269 269 270 271 271 273 274 275 276 276 277 277 277 278 278 278 279 279 279 279 280 280 280 279 277 277 276 275 270 268 270 272 273 273 272 271 270 269 269 268 267 267 267 267 267 267 266 266 265 264 264 265 266 268 270 275 278 279 282 277 273 279 283 282 284 288 292 293 294 296 298 301 303 303 302 301 296
258 258 258 259 260 260 262 263 264 264 264 265 265 265 265 265 267 267 268 268 268 269 271 271 272 273 274 275 276 276 276 276 276 276 277 277 278 278 278 279 279 280 279 278 276 275 273 273 272 268 268 271 273 273 272 271 269 268 268 267 267 268 268 267 266 264 262 263 266 267 266 267 268 269 272 275 276 277 282 280 280 284 286 288 292 295 296 298 299 300 302 304 304 303 301 297 292
257 257 258 259 260 261 262 263 263 264 265 265 264 264 264 266 267 268 268 268 268 269 269 270 271 272 273 274 275 275 275 274 274 275 276 277 277 277 278 279 279 278 278 278 278 277 275 274 273 272 271 271 272 272 273 272 271 270 268 268 267 267 268 268 268 267 266 267 269 269 270 271 273 273 274 276 275 275 280 282 282 283 286 291 296 297 298 299 300 302 304 305 304 302 298 293 288
257 258 259 260 261 261 262 262 263 264 265 265 264 264 264 265 267 267 267 267 267 267 267 268 269 270 271 272 273 273 273 272 273 274 275 276 276 277 278 278 278 278 277 276 277 278 277 275 274 274 273 272 271 271 272 272 273 274 272 270 269 268 268 269 269 269 269 270 271 273 275 275 275 274 274 276 277 277 280 282 283 283 287 293 296 297 297 298 299 302 304 305 304 300 296 290 285
259 260 261 260 260 261 262 263 263 264 265 264 264 264 264 265 266 266 266 266 265 265 266 266 267 269 270 271 271 271 271 271 272 273 274 275 276 276 277 278 278 277 276 275 274 275 276 276 276 277 278 277 276 275 274 274 275 276 275 274 274 273 273 273 273 272 272 273 273 272 272 270 270 272 273 275 277 278 280 282 284 285 288 292 295 296 296 296 298 301 303 304 303 300 296 290 284
260 260 259 259 259 260 261 262 262 263 263 264 264 264 264 264 265 265 265 265 264 264 265 266 267 268 269 270 270 270 270 270 271 272 272 272 273 275 276 277 277 276 275 274 273 272 273 275 275 276 279 280 280 280 280 279 277 277 277 277 278 278 277 275 274 274 274 272 270 268 267 268 269 270 272 275 277 279 281 283 284 286 288 291 293 294 294 295 298 300 301 302 302 301 298 293 288
259 259 258 259 259 260 260 260 261 261 262 263 263 263 264 264 264 264 263 262 263 264 265 265 266 267 268 268 268 267 267 268 269 270 270 271 272 273 275 275 276 276 276 275 274 273 273 273 272 271 273 277 279 279 280 280 279 279 278 278 278 276 274 273 272 272 271 268 268 267 266 267 269 271 274 278 280 282 283 284 284 285 287 288 290 291 293 295 297 297 299 300 300 301 300 296 292
258 258 259 259 259 260 260 260 260 261 262 262 263 263 263 262 262 261 261 261 262 263 263 263 264 265 266 265 265 265 265 266 267 269 270 270 271 272 273 274 275 276 276 276 276 275 274 273 271 269 269 271 274 275 277 279 280 280 281 281 280 278 275 273 270 268 266 265 265 265 266 268 271 274 277 280 281 282 283 283 283 283 284 286 288 291 292 294 295 295 297 298 298 299 291 280 280
258 258 258 259 259 260 260 260 260 260 261 261 262 262 261 261 260 259 259 260 260 260 260 261 262 263 263 263 263 263 265 266 268 268 268 270 271 272 273 273 274 274 275 275 275 275 274 273 272 272 272 272 272 273 273 275 277 278 280 280 280 278 274 270 268 265 264 264 265 266 268 271 273 275 277 279 280 282 282 282 282 283 285 287 289 291 291 292 293 294 297 297 296 296 282 269 269
257 257 257 258 258 259 259 259 259 259 259 260 260 260 260 260 258 257 258 258 258 258 258 259 260 261 262 262 263 264 265 267 268 268 268 269 270 272 273 273 272 272 272 272 273 272 272 271 270 270 270 271 271 272 273 273 273 274 274 273 273 271 269 268 267 265 265 265 266 268 270 272 273 275 277 278 280 282 284 284 285 286 287 289 289 289 290 291 293 296 298 296 295 292 278 263 259
257 257 257 258 258 258 259 259 259 258 258 259 259 258 258 258 257 256 255 255 256 257 258 259 259 261 262 262 263 264 265 266 267 268 268 269 271 272 273 272 271 270 270 270 271 271 270 270 268 267 267 266 267 268 270 271 271 271 270 268 266 266 266 267 267 267 267 267 268 269 270 272 274 275 277 279 282 284 285 285 286 287 288 288 287 289 289 290 293 297 298 295 293 290 275 254 246
256 256 257 258 258 259 259 259 259 259 258 258 257 256 255 256 256 255 254 255 256 257 258 259 260 260 261 261 262 262 263 264 265 266 267 269 270 271 272 272 271 270 269 269 269 270 270 270 270 269 266 264 263 263 264 265 266 267 267 266 264 264 265 266 267 268 269 270 271 271 272 274 275 277 279 280 282 283 284 285 286 286 286 285 286 287 287 288 294 299 298 295 292 289 278 258 245
255 256 256 257 257 257 258 258 258 257 256 256 255 254 253 253 254 254 254 255 256 258 259 260 260 260 260 260 260 260 260 261 263 264 266 268 270 271 272 272 271 270 269 268 268 268 270 271 272 271 267 263 261 260 260 260 261 261 262 262 261 262 263 264 266 268 269 271 273 273 274 275 276 277 279 281 282 282 283 283 283 283 283 283 285 284 283 286 295 300 300 296 291 288 281 267 254
255 256 256 256 256 256 255 256 256 255 255 254 253 252 252 251 252 253 254 256 257 258 260 260 260 259 259 258 258 258 258 259 262 264 266 268 269 270 271 270 269 269 268 267 267 268 269 270 270 270 267 264 262 260 259 259 259 260 261 261 262 263 263 264 266 267 268 270 271 273 274 275 276 277 278 279 280 280 280 280 280 280 281 281 281 279 279 285 292 298 299 296 291 287 284 277 270
255 256 256 256 255 254 254 254 254 254 254 253 253 253 253 252 252 253 254 255 256 257 258 259 258 258 258 257 257 257 258 259 262 264 266 268 269 269 269 268 268 268 267 267 268 268 268 267 267 266 266 266 265 265 263 263 264 264 264 264 265 266 266 267 267 268 269 269 270 271 272 274 275 276 276 277 277 277 277 276 277 278 279 278 275 273 276 282 287 291 294 294 291 288 285 282 280
255 256 256 255 254 254 254 253 253 253 253 253 254 254 254 253 254 255 255 255 256 256 256 256 257 258 258 258 258 258 258 260 262 265 266 268 270 270 269 267 267 267 267 267 268 267 266 265 265 266 266 267 268 269 270 270 270 270 269 267 266 266 267 267 268 268 268 269 269 270 271 272 273 273 274 274 275 274 274 274 274 275 275 275 273 272 275 279 282 286 289 291 291 289 286 283 282
255 255 256 255 254 253 254 253 253 253 253 254 254 254 255 255 256 256 256 256 255 255 255 256 257 257 258 259 260 259 260 261 264 266 268 269 270 270 269 268 267 267 268 268 268 266 265 265 266 266 267 267 269 271 273 273 273 272 271 269 268 268 267 267 267 267 267 267 268 270 270 270 270 271 271 271 272 272 272 272 272 272 271 271 273 275 277 279 281 284 287 289 290 290 287 284 282
255 255 255 255 254 253 253 254 253 253 254 254 255 255 256 257 257 257 257 255 255 254 255 256 257 257 258 259 259 260 262 263 265 267 269 270 270 269 268 267 267 267 267 267 266 265 265 265 266 266 267 268 270 272 272 272 272 271 271 270 269 269 269 268 267 266 266 266 266 268 269 269 269 269 269 269 270 270 270 271 271 270 270 270 273 276 280 282 283 284 286 288 289 288 287 285 282
254 254 254 255 254 254 254 255 255 255 255 255 255 255 256 257 258 258 257 255 254 253 254 255 256 257 258 259 259 260 261 262 264 266 268 269 269 268 266 265 265 265 264 263 262 261 262 264 265 266 268 271 271 271 270 270 270 270 270 270 270 270 270 269 268 267 266 264 265 268 270 271 272 271 270 269 269 269 268 268 269 269 269 270 272 276 279 281 283 285 287 287 287 287 286 285 283
253 254 255 255 255 254 254 255 255 255 254 255 255 255 255 256 257 258 258 257 255 254 254 254 255 255 257 258 259 259 260 261 262 264 266 267 267 267 265 263 262 262 261 259 259 259 260 261 264 268 270 270 268 267 267 268 269 270 271 270 270 269 269 270 271 272 270 267 266 269 271 272 273 273 274 273 272 270 268 267 267 267 267 269 271 274 277 279 279 282 285 287 288 287 286 285 284
253 254 254 254 254 254 253 253 253 254 254 254 254 255 255 254 254 255 257 258 257 256 254 254 253 253 254 255 256 257 258 259 261 264 266 267 267 266 264 261 259 258 257 257 257 258 259 262 266 269 271 269 268 267 267 268 268 268 268 269 267 266 266 268 271 274 276 275 271 270 271 271 272 273 275 276 275 273 271 269 268 267 266 267 269 272 274 275 276 277 281 285 287 287 286 285 284
251 252 252 252 252 252 252 252 253 254 254 254 253 253 253 252 252 252 255 258 259 257 256 255 253 252 253 254 255 256 256 260 265 267 269 269 267 265 263 260 256 254 253 253 255 256 258 262 266 269 270 267 267 267 266 266 267 267 267 268 268 267 266 266 268 272 277 280 279 276 274 274 273 273 274 275 275 275 275 273 271 269 268 267 268 270 272 273 274 275 279 283 285 286 285 284 282
249 250 250 250 250 251 252 253 253 253 253 253 252 251 250 250 251 252 254 258 261 262 259 257 254 252 253 254 255 256 256 261 264 266 273 274 268 263 262 259 255 251 250 249 250 252 253 256 261 266 266 259 256 258 257 257 262 266 267 267 268 269 269 269 269 271 274 277 279 279 277 277 277 276 275 274 274 274 275 274 272 270 269 268 268 269 271 273 275 276 278 281 283 284 284 283 280
250 250 250 251 252 252 253 253 253 253 252 252 251 250 249 249 250 252 254 257 260 262 261 258 255 252 251 252 254 255 255 255 246 244 261 269 266 262 260 258 255 251 248 246 246 248 248 248 249 254 258 255 253 256 258 257 259 261 262 264 265 265 266 268 269 271 272 274 275 277 277 278 279 279 279 277 275 275 275 274 272 270 269 269 269 270 271 273 275 276 277 280 282 283 284 283 281
251 250 250 252 253 254 254 254 254 254 254 253 252 250 249 249 248 249 252 254 257 259 260 259 258 255 253 251 250 250 249 244 229 226 239 251 257 258 257 258 257 252 246 242 244 251 251 248 245 244 250 254 254 255 258 259 260 259 259 261 263 262 262 263 264 266 268 269 270 271 273 274 275 277 278 278 278 278 277 276 273 272 271 270 270 270 271 273 275 276 278 279 281 282 283 283 281
248 249 249 250 252 253 254 255 256 256 256 256 254 252 250 249 249 250 252 255 256 257 258 259 259 258 255 252 249 244 242 236 225 223 230 240 249 253 255 257 257 256 251 245 248 256 256 253 251 249 253 258 258 257 257 258 260 260 259 259 260 260 261 261 261 263 266 267 267 268 269 271 271 272 274 276 277 277 276 275 274 274 274 273 273 272 273 275 276 277 278 278 279 280 281 282 281
245 247 248 248 250 251 253 254 255 256 256 256 255 254 252 251 251 252 253 255 257 257 257 257 257 257 255 253 249 245 242 239 230 224 227 236 243 249 255 257 256 258 257 254 255 257 256 256 256 256 258 262 264 264 262 262 262 263 262 260 259 259 259 260 260 261 263 265 266 267 268 269 270 270 271 272 273 273 273 273 273 274 275 275 275 275 276 277 277 277 277 277 278 277 279 281 281
244 245 246 247 248 250 251 252 253 254 255 255 255 255 254 254 254 254 255 256 257 257 257 256 255 254 253 251 250 247 245 244 240 233 232 238 243 248 255 258 257 259 259 258 258 257 257 258 259 259 261 264 266 267 267 267 267 266 265 263 261 259 258 258 258 258 258 260 262 264 266 268 270 271 271 271 271 271 270 269 270 272 273 274 275 276 277 277 277 277 276 276 277 276 277 280 279